Aérodrome :
LOGIN :

S'inscrire | Disclaimer

   EN    FR    IT 

 










Légende :    VFR   VFR Marginal   IFR   IFR Intensif   IFR Très Intensif
Visi : 
Plafond : 
>= 8 km
>= 3000ft
5 à 8 km
1000 à 3000 ft
1500m à 5 km
500 à 1000 ft
800 à 1500m
200 à 500 ft
< 800m
< 200 ft
Symboles :   Orages  Brouillard  Fortes neiges  Fortes précipitations  Vent > 20 kt
SIGMETs :   Divers  Orages  Givrage  Turbulence  Onde Orograph.  Cendres Volcan.






- Altitude de l'aérodrome : 230 ft


ETHB - Buckeburg Army

DERNIER METAR :
  • 281220Z 26006KT 9999 FEW025 BKN250 17/11 Q1022 BLU+BLU+

METARs EXPIRÉS :
  • 281120Z 21009KT 9999 FEW020 BKN280 17/11 Q1023 BLU+BLU+
  • 281020Z 23006KT 9999 FEW015 BKN300 16/11 Q1023 BLU+BLU+

TAF TAF ETHB
Valide du 28 à 11h jusqu'au 28 à 20h UTC


281050Z 2811/2820 22007KT 9999 NSW SCT020 BKN240
BECMG 2816/2818 12003KT 9999 NSW SCT035



MET'MAP, la Météo Aéronautique d'un coup d'oeil ! - Copyright ORBIFLY Décembre 2007 - Disclaimer

ORBIFLY MET'MAP TEAM :

Programmation & Développement : Alexandra Zaïnal
Sur une idée originale de : Baudouin d'Aumeries
Assistance à la programmation : Marc-Olivier Méhu
Soutien technique & logistique : Manuel Goepfert

Contact : metmap@orbifly.com




SOURCES & CREDITS :

   NOAA